Weather History for Mandan, ND

Change the Weather History Date:

Monday, April 28, 2014

  Actual Average (KBIS) Record (KBIS)
Temperature  
Mean Temperature 36 °F 49 °F  
Max Temperature 39 °F 63 °F 92 °F (1952)
Min Temperature 32 °F 36 °F 18 °F (2008)
Degree Days  
Heating Degree Days 30 16  
Month to date heating degree days 606  
Since 1 July heating degree days 8125  
Cooling Degree Days 0 0  
Month to date cooling degree days 0  
Year to date cooling degree days 0  
Moisture  
Dew Point 34 °F    
Average Humidity 98    
Maximum Humidity 100    
Minimum Humidity 93    
Precipitation  
Precipitation 2.70 in 0.06 in 1.51 in (1970)
Month to date precipitation 1.15  
Year to date precipitation 2.96  
Snow  
Snow 0.00 in 0.10 in 6.70 in (1914)
Month to date snowfall 4.1  
Since 1 July snowfall 50.7  
Snow Depth -    
Sea Level Pressure  
Sea Level Pressure 29.68 in    
Wind  
Wind Speed 11 mph (NNE)    
Max Wind Speed 15 mph    
Max Gust Speed 20 mph    
Visibility 5 miles    
Events Rain , Snow    
T = Trace of Precipitation, MM = Missing Value Source: NWS Daily Summary

Daily Weather History Graph

Daily Weather History Graph

Search for Another Location

Airport:

Trip Planner

Search our weather history database for the weather conditions in past years. The results will help you decide how hot, cold, wet, or windy it might be!

Date:

Astronomy

Apr. 28, 2014 Rise Set
Actual Time 6:33 AM CDT 8:49 PM CDT
Civil Twilight 6:00 AM CDT 9:23 PM CDT
Nautical Twilight 5:18 AM CDT 10:04 PM CDT
Astronomical Twilight 4:32 AM CDT 10:51 PM CDT
Moon 6:16 AM CDT (4/28) 8:27 PM CDT (4/28)
Length of Visible Light 15h 22m
Length of Day
14h 16m
Waning Crescent, 0% of the Moon is Illuminated
Apr 28
Waning Crescent
Apr 29
New
May 6
First Quarter
May 14
Full
May 21
Last Quarter

Hourly Weather History & Observations

Time (CDT) Temp. Windchill Dew Point Humidity Pressure Visibility Wind Dir Wind Speed Gust Speed Precip Events Conditions
12:35 AM 33.8 °F 24.3 °F 32.0 °F 93% 29.57 in 5.0 mi ENE 13.8 mph 19.6 mph 0.04 in Snow Light Snow
12:55 AM 32.0 °F 21.6 °F 32.0 °F 100% 29.57 in 2.0 mi ENE 15.0 mph 18.4 mph 0.08 in Snow Light Snow
1:15 AM 32.0 °F 23.0 °F 32.0 °F 100% 29.57 in 1.5 mi NE 11.5 mph - 0.07 in Snow Light Snow
1:55 AM 32.0 °F 23.6 °F 32.0 °F 100% 29.57 in 1.2 mi ENE 10.4 mph - 0.49 in Snow Light Snow
2:15 AM 32.0 °F 24.2 °F 32.0 °F 100% 29.56 in 1.0 mi NE 9.2 mph - N/A Snow Light Snow
2:35 AM 32.0 °F 23.6 °F 32.0 °F 100% 29.55 in 5.0 mi NE 10.4 mph - N/A Snow Light Snow
2:55 AM 32.0 °F 23.0 °F 32.0 °F 100% 29.54 in 5.0 mi NE 11.5 mph - 0.02 in Snow Light Snow
3:15 AM 32.0 °F 22.5 °F 32.0 °F 100% 29.52 in 10.0 mi NE 12.7 mph - N/A   Overcast
3:35 AM 32.0 °F 24.2 °F 32.0 °F 100% 29.54 in 10.0 mi ENE 9.2 mph - N/A   Overcast
3:55 AM 32.0 °F 24.2 °F 32.0 °F 100% 29.54 in 10.0 mi NE 9.2 mph - N/A   Overcast
4:15 AM 32.0 °F 24.2 °F 32.0 °F 100% 29.55 in 10.0 mi ENE 9.2 mph - N/A   Overcast
4:35 AM 32.0 °F 24.8 °F 32.0 °F 100% 29.55 in 10.0 mi ENE 8.1 mph - N/A   Overcast
4:55 AM 32.0 °F 25.6 °F 32.0 °F 100% 29.56 in 10.0 mi NE 6.9 mph - N/A   Overcast
5:15 AM 33.8 °F 27.7 °F 32.0 °F 93% 29.55 in 10.0 mi NE 6.9 mph - N/A   Overcast
5:35 AM 33.8 °F 27.7 °F 32.0 °F 93% 29.56 in 10.0 mi NE 6.9 mph - N/A   Overcast
5:55 AM 33.8 °F 27.0 °F 32.0 °F 93% 29.57 in 10.0 mi NNE 8.1 mph - N/A   Overcast
6:15 AM 33.8 °F 27.7 °F 32.0 °F 93% 29.57 in 9.0 mi NNE 6.9 mph - N/A   Overcast
6:35 AM 33.8 °F 27.7 °F 33.8 °F 100% 29.59 in 5.0 mi NNE 6.9 mph - N/A   Overcast
7:55 AM 33.8 °F 25.3 °F 33.8 °F 100% 29.59 in 4.0 mi North 11.5 mph - 0.02 in   Mostly Cloudy
8:15 AM 35.6 °F 29.2 °F 33.8 °F 93% 29.61 in 5.0 mi North 8.1 mph - N/A   Overcast
8:35 AM 35.6 °F 27.1 °F 33.8 °F 93% 29.60 in 2.5 mi North 12.7 mph - 0.02 in Rain Light Rain
8:55 AM 35.6 °F 27.5 °F 35.6 °F 100% 29.61 in 4.0 mi NNE 11.5 mph - 0.04 in Rain Light Rain
9:15 AM 35.6 °F 27.5 °F 35.6 °F 100% 29.61 in 6.0 mi North 11.5 mph - N/A   Overcast
9:35 AM 35.6 °F 28.6 °F 35.6 °F 100% 29.62 in 3.0 mi NNE 9.2 mph - N/A   Overcast
9:55 AM 35.6 °F 29.2 °F 35.6 °F 100% 29.63 in 3.0 mi NNE 8.1 mph - N/A   Overcast
10:15 AM 35.6 °F 28.6 °F 35.6 °F 100% 29.63 in 2.5 mi North 9.2 mph - N/A Rain Light Rain
10:35 AM 35.6 °F 28.6 °F 35.6 °F 100% 29.64 in 3.0 mi North 9.2 mph - N/A Rain Light Rain
10:55 AM 37.4 °F 30.8 °F 35.6 °F 93% 29.64 in 2.5 mi North 9.2 mph - 0.02 in Rain Light Rain
11:15 AM 37.4 °F 30.8 °F 37.4 °F 100% 29.64 in 4.0 mi North 9.2 mph - N/A Rain Light Rain
11:35 AM 37.4 °F 29.3 °F 37.4 °F 100% 29.63 in 4.0 mi North 12.7 mph - N/A   Mostly Cloudy
11:55 AM 37.4 °F 29.8 °F 37.4 °F 100% 29.64 in 5.0 mi North 11.5 mph - N/A   Overcast
12:15 PM 37.4 °F 29.8 °F 37.4 °F 100% 29.64 in 7.0 mi North 11.5 mph - N/A Rain Light Rain
12:35 PM 37.4 °F 29.8 °F 37.4 °F 100% 29.66 in 5.0 mi NNE 11.5 mph - 0.03 in Rain Rain
12:55 PM 37.4 °F 30.3 °F 37.4 °F 100% 29.66 in 5.0 mi NNE 10.4 mph - 0.09 in Rain Rain
1:15 PM 37.4 °F 30.3 °F 37.4 °F 100% 29.66 in 5.0 mi NNE 10.4 mph - 0.04 in Rain Rain
1:35 PM 39.2 °F 32.0 °F 37.4 °F 93% 29.66 in 5.0 mi NNE 11.5 mph - 0.09 in Rain Rain
1:55 PM 39.2 °F 31.6 °F 37.4 °F 93% 29.67 in 4.0 mi NNE 12.7 mph - 0.14 in Rain Rain
2:15 PM 39.2 °F 32.0 °F 37.4 °F 93% 29.67 in 5.0 mi NE 11.5 mph - 0.04 in Rain Rain
2:55 PM 37.4 °F 29.8 °F 37.4 °F 100% 29.68 in 4.0 mi NE 11.5 mph - 0.16 in Rain Rain
3:35 PM 37.4 °F 29.8 °F 35.6 °F 93% 29.69 in 6.0 mi NNE 11.5 mph - 0.08 in Rain Light Rain
3:55 PM 35.6 °F 27.5 °F 33.8 °F 93% 29.70 in 5.0 mi NE 11.5 mph - 0.13 in Rain Rain
4:15 PM 33.8 °F 25.3 °F 32.0 °F 93% 29.71 in 3.0 mi NNE 11.5 mph - 0.05 in Snow Light Snow
4:35 PM 33.8 °F 25.3 °F 32.0 °F 93% 29.72 in 3.0 mi NNE 11.5 mph - 0.15 in Snow Light Snow
4:55 PM 32.0 °F 23.6 °F 32.0 °F 100% 29.73 in 2.0 mi NNE 10.4 mph - 0.28 in Snow Light Snow
5:15 PM 32.0 °F 23.0 °F 32.0 °F 100% 29.74 in 1.2 mi North 11.5 mph - 0.23 in Snow Light Snow
5:35 PM 32.0 °F 23.6 °F 32.0 °F 100% 29.75 in 2.5 mi North 10.4 mph - 0.40 in Snow Light Snow
5:55 PM 32.0 °F 23.6 °F 32.0 °F 100% 29.76 in 2.0 mi North 10.4 mph - 0.57 in Snow Light Snow
6:15 PM 32.0 °F 23.0 °F 32.0 °F 100% 29.77 in 2.0 mi North 11.5 mph - 0.11 in Snow Light Snow
6:35 PM 32.0 °F 23.6 °F 32.0 °F 100% 29.78 in 2.0 mi North 10.4 mph - 0.25 in Snow Light Snow
6:55 PM 32.0 °F 24.2 °F 32.0 °F 100% 29.78 in 1.5 mi North 9.2 mph - 0.41 in Snow Light Snow
7:15 PM 32.0 °F 23.6 °F 32.0 °F 100% 29.79 in 2.5 mi NNW 10.4 mph - 0.07 in Snow Light Snow
7:35 PM 32.0 °F 24.2 °F 32.0 °F 100% 29.80 in 5.0 mi North 9.2 mph - 0.10 in Snow Light Snow
7:55 PM 32.0 °F 24.2 °F 32.0 °F 100% 29.81 in 8.0 mi North 9.2 mph - 0.11 in Snow Light Snow
8:15 PM 32.0 °F 23.6 °F 32.0 °F 100% 29.82 in 3.0 mi NNW 10.4 mph - 0.03 in Snow Light Snow
8:35 PM 32.0 °F 23.0 °F 32.0 °F 100% 29.82 in 10.0 mi NNW 11.5 mph - 0.04 in   Overcast
8:55 PM 32.0 °F 23.0 °F 32.0 °F 100% 29.83 in 9.0 mi North 11.5 mph - 0.04 in   Overcast
9:15 PM 32.0 °F 23.0 °F 32.0 °F 100% 29.84 in 4.0 mi North 11.5 mph - 0.02 in Snow Light Snow
9:55 PM 32.0 °F 22.5 °F 32.0 °F 100% 29.87 in 6.0 mi North 12.7 mph - 0.05 in Snow Light Snow
10:15 PM 32.0 °F 23.0 °F 32.0 °F 100% 29.88 in 5.0 mi North 11.5 mph - N/A Snow Light Snow
10:35 PM 32.0 °F 23.6 °F 32.0 °F 100% 29.88 in 3.0 mi NNW 10.4 mph - 0.03 in Snow Light Snow
10:55 PM 32.0 °F 23.0 °F 32.0 °F 100% 29.89 in 5.0 mi North 11.5 mph - 0.04 in Snow Light Snow
11:15 PM 32.0 °F 23.6 °F 32.0 °F 100% 29.89 in 4.0 mi North 10.4 mph - N/A Snow Light Snow
11:35 PM 32.0 °F 22.5 °F 32.0 °F 100% 29.90 in 7.0 mi North 12.7 mph - 0.01 in Snow Light Snow
11:55 PM 32.0 °F 23.0 °F 32.0 °F 100% 29.89 in 5.0 mi North 11.5 mph - 0.01 in   Overcast